{"data":{"norad_id":69216,"epoch":"2026-09-20T00:22:45.076800Z","epoch_age_seconds":68796,"freshness":"FRESH","line1":"1 69216U 26115F   26263.01579950  .00002457  00000+0  78419-4 0  9994","line2":"2 69216  97.2836 279.0781 0001785  97.8626 262.2819 15.33433890 19216","mean_motion":15.3343389,"eccentricity":0.0001785,"inclination_deg":97.2836,"raan_deg":279.0781,"arg_perigee_deg":97.8626,"mean_anomaly_deg":262.2819,"bstar":7.8419e-5,"rev_number":1921,"period_min":93.906885023912,"perigee_km":464.35462740956,"apogee_km":466.79783303275,"semimajor_km":6843.7132302212,"source":"CELESTRAK","updated_at":"2026-09-20T09:00:44.102672Z"}}